Location: Novokuznetsk
(53.7500°N, 87.1000°E)
Time: 17:30:20
(UTC+06:00)

ISS - Visible Passes

Search period start: 22 May 2019 00:00
Search period end: 01 June 2019 00:00
Orbit: 407 x 410 km, 51.6° (Epoch: 22 May)

Date Brightness Start Highest point End Pass type
(mag) Time Alt. Az. Time Alt. Az. Time Alt. Az.
22 May -3.4 00:33:12 10° W 00:36:14 39° SSW 00:36:14 39° SSW visible
22 May -3.8 22:05:53 10° WSW 22:09:09 57° S 22:12:24 10° E visible
22 May -3.7 23:42:19 10° W 23:45:32 49° SSW 23:46:31 35° SE visible
23 May -1.3 01:19:11 10° W 01:19:13 10° W 01:19:13 10° W visible
23 May -3.6 21:15:06 10° WSW 21:18:19 49° SSE 21:21:32 10° E visible
23 May -3.8 22:51:27 10° W 22:54:42 56° S 22:57:02 17° ESE visible
24 May -2.2 00:28:05 10° W 00:29:43 21° WSW 00:29:43 21° WSW visible
24 May -3.8 22:00:34 10° W 22:03:51 60° S 22:07:07 10° ESE visible
24 May -3.2 23:37:06 10° W 23:40:10 35° SSW 23:40:19 34° SSW visible
25 May -3.7 21:09:42 10° WSW 21:12:58 59° S 21:16:14 10° E visible
25 May -3.5 22:46:10 10° W 22:49:21 44° SSW 22:50:56 24° SE visible
26 May -1.4 00:23:15 10° WSW 00:23:39 12° WSW 00:23:39 12° WSW visible
26 May -3.6 21:55:15 10° W 21:58:29 53° S 22:01:36 11° ESE visible
26 May -2.3 23:31:59 10° W 23:34:19 22° SW 23:34:19 22° SW visible
27 May -2.8 22:40:54 10° W 22:43:52 30° SSW 22:44:59 24° SSE visible
28 May -3.2 21:49:55 10° W 21:53:02 39° SSW 21:55:41 13° SE visible
28 May -1.5 23:27:19 10° WSW 23:28:24 13° SW 23:28:24 13° SW visible
29 May -2.1 22:35:49 10° W 22:38:15 19° SSW 22:39:07 17° S visible
30 May -2.5 21:44:38 10° W 21:47:27 26° SSW 21:49:51 12° SSE visible
31 May -1.4 22:31:38 10° SW 22:32:28 11° SW 22:33:18 10° SSW visible
